Погода в Санту-Андре

Бразилия     23°44′09″S   46°29′47″W
темп.,
°C
ветер,
м/с
пор.,
м/с
влажн.,
%
обл.,
%
осадки,
мм/ч
давл.,
гПа
погр.,
м
27 февраля, сб
сб2700:00+20св248494 0.2 1014391
03:00+19всв248486 0.2 1013348
06:00+19всв128640 0.0 1014244
09:00+23в237042 0.0 1015621
12:00+25вюв336170 1.1 1015987
15:00+24юв457369 6.4 1013720
18:00+22юв458299 2.9 1013498
21:00+21юв128599 6.5 1014277
28 февраля, вс
вс2800:00+20вюв1385100 6.6 1014258
03:00+21всв2476100 7.1 1013327
06:00+21ссв247694 0.0 1013291
09:00+23всв246667 0.0 1014470
12:00+28всв144689 0.0 10141377
15:00+25юв446865 1.6 1012681
18:00+22юв4586100 4.9 1012327
21:00+21ююв3487100 7.4 1013188
1 марта, пн
пн100:00+21всв238396 0.1 1013185
03:00+21ссв257881 0.1 1012270
06:00+20с368052 0.0 1012214
09:00+25с355776 0.0 1013686
12:00+30с234146 0.0 10131802
15:00+26ююв336571 3.3 1011518
18:00+24ююв347197 3.4 1011285
21:00+23вюв117298 4.0 1012165
2 марта, вт
вт200:00+23ссв017090 0.0 1013112
03:00+22ссв247283 0.0 1012200
06:00+22с247476 0.0 1013188
09:00+26с465688 0.0 1014830
12:00+30сз3443100 0.1 10141765
15:00+26ююв3365100 3.6 1012445
18:00+22юв3582100 7.7 1012225
21:00+22ююв1179100 10.9 1014137
3 марта, ср
ср300:00+23ссв1271100 0.2 1015158
03:00+22всв117499 1.9 101442
06:00+21ююв1281100 2.6 1015133
09:00+22с1375100 4.3 1016297
12:00+24с1466100 0.8 1016611
15:00+26ю136299 3.4 1014950
18:00+23ююв2380100 3.9 1013199
21:00+23ююв1276100 5.8 1015159